Vertical_Velocity
1 -1 -0 -1 5 1 1 3 0 2 1 0 1 1 -1 1 3 7 1 -2 0 2 2 2 0 -0 -2 2 3 2 3 3 5 2 1 -2 -0 0 3 -1 -1 -2 -1 -1 -1 -2 -1 -2 1
1 1 -1 -1 1 -1 3 1 0 1 1 2 -1 1 -1 5 -1 -1 1 1 1 0 2 2 -0 -1 -2 0 1 -1 -0 3 -1 8 4 3 2 -1 -1 2 -0 2 -1 -2 -2 -0 -2 -1 -0
-0 0 2 -0 -1 1 1 1 1 3 0 1 -0 -1 1 2 0 3 3 0 -0 -0 1 2 1 -1 2 -2 -1 3 -1 -9 -6 8 4 -0 2 1 1 -0 -0 0 -3 -2 0 -0 -0 -1 -0
-0 1 1 -1 1 4 0 1 -0 2 2 -1 -1 -1 -2 3 2 1 -2 -1 1 1 1 -0 1 0 1 4 -4 -2 -4 -8 -0 7 1 2 6 4 -0 0 1 -1 -0 -0 -2 -2 -0 -0 -1
0 -0 -0 -1 2 2 2 0 0 0 0 2 1 6 0 2 1 1 -1 1 3 3 4 -2 -3 0 3 5 -4 -7 -9 -6 -16 7 8 2 5 10 0 -1 -2 -1 1 -3 -1 -2 1 -1 0
2 -1 0 -0 2 2 1 -0 -1 -0 1 5 -3 -2 2 2 2 -0 3 1 1 -3 -2 4 -1 -1 -6 -4 -8 -10 -7 -13 11 3 7 2 3 3 -1 -2 -3 -2 -1 0 0 -1 -2 -1 -1
-0 -0 0 -0 2 2 1 1 -1 0 -0 2 -0 -2 1 2 2 -0 1 1 2 1 -0 -10 3 -4 -1 -9 -8 -6 -18 -16 5 2 7 2 1 3 -2 -3 0 1 1 -0 -1 -2 -1 -2 1
-1 -1 1 0 -0 4 3 -1 -2 -4 4 -2 1 -1 1 -4 2 2 2 1 4 0 1 0 -15 9 5 -4 -4 -0 -2 9 6 5 6 3 2 2 1 1 1 0 1 -4 -3 -2 -1 2 -3
-1 1 0 2 -1 6 3 -2 3 0 -6 1 3 0 -2 -3 1 -0 -1 -0 1 1 -1 2 -1 5 4 6 6 1 1 2 2 2 3 4 1 0 2 -1 0 1 -1 -2 -1 1 1 -2 -2
-1 -2 1 1 1 1 1 -2 -2 -1 2 1 1 3 -0 -2 -1 -0 -0 2 2 1 -1 5 3 2 2 -0 -0 3 -1 2 0 4 1 2 -0 -2 3 -1 2 1 1 3 -1 -0 -4 -5 -4
1 0 0 3 0 -0 -0 0 1 -1 2 -2 -6 -1 0 -1 1 1 1 4 2 1 0 1 -0 1 1 0 -1 -1 0 6 3 3 -1 4 -2 -1 -0 -1 0 -1 1 -0 -2 -2 -5 -3 -1
-3 1 -0 1 1 0 0 -2 1 -1 1 -3 -2 3 -1 -1 -2 -1 1 -0 -1 1 0 -3 -3 -0 -1 -2 -1 2 2 5 -1 2 -2 0 -1 3 -3 -1 -0 -1 -2 -1 -1 -1 -2 0 2
-5 -0 -0 1 -1 0 0 1 -0 2 -1 2 -1 -1 2 -1 0 1 3 2 -2 -1 -2 -0 1 1 -3 -1 0 -0 1 2 3 -4 -0 3 -4 -1 -1 2 0 -0 -1 -2 -0 0 -0 0 1
-1 -1 0 -1 -3 0 -0 1 -3 5 0 3 -3 -1 2 -2 -2 -2 0 1 1 -1 -2 -0 1 -2 0 1 -0 -0 -4 0 1 4 1 -4 -0 1 2 1 1 -1 -2 3 2 -4 1 2 1
0 -2 2 2 -2 0 -1 -3 0 2 2 0 -0 0 1 -0 -3 -0 3 -0 4 1 -1 3 1 -3 -1 -1 -1 -3 4 1 1 -1 -1 -1 2 2 -1 0 2 -1 4 0 -1 -1 2 2 -0
0 1 1 3 0 2 -6 -2 -1 3 2 -0 -1 2 -1 -2 4 2 2 -1 -1 1 1 -0 1 1 1 -1 -1 3 1 -0 -3 -3 -1 -0 3 -2 -1 1 1 1 3 2 -1 -2 1 -3 -0
-0 0 -0 5 -1 -0 -5 -3 -10 2 2 1 -1 0 -1 0 -1 -3 0 1 -0 0 3 -1 -2 4 1 1 2 -1 -2 -1 -0 -1 0 -1 -2 -1 -0 2 -1 1 0 2 -2 0 -1 -1 -2
0 1 1 0 1 1 3 -1 -3 -3 3 -2 0 -2 -2 0 -4 4 -4 0 4 -1 1 2 -3 2 0 1 -1 -0 -0 0 -1 0 0 -5 -0 0 0 2 -2 0 -1 0 -2 0 -2 -1 -1
-0 -0 0 1 1 2 -2 -0 -3 -2 1 1 1 1 -2 -6 3 1 -2 -2 1 -2 -0 2 -4 2 0 -1 1 -1 -1 -2 -2 -2 -0 -1 0 -1 -2 -1 -2 -3 -1 -2 -4 -2 -1 -0 -1
1 1 0 2 1 5 1 -2 -2 -0 -2 -3 -1 -1 -2 3 -2 -1 -2 -0 -1 0 -1 0 -4 -3 1 0 1 1 1 -0 -1 -2 -2 2 1 1 -0 -0 1 0 -1 -2 -2 -1 2 2 -0
-1 1 -0 -2 1 1 1 1 3 -1 1 4 -4 -1 -2 -3 0 -0 -2 -2 1 -3 -4 -1 0 -3 -1 2 3 2 -3 -0 1 -1 -2 2 1 -2 -0 0 -2 1 -1 0 -1 2 -0 2 2
3 -1 -2 -0 1 2 3 1 1 -1 -1 1 -1 -1 -4 -2 -1 2 -3 -4 -4 -3 0 -5 -1 -1 -1 2 -1 3 1 -1 2 1 -1 -0 0 -0 0 2 1 -1 0 -2 -2 2 1 3 -1
1 -1 -3 -2 -0 1 3 5 4 1 1 -3 -5 -2 -3 -3 0 -5 -3 -6 1 1 -4 2 -1 1 -2 -1 2 1 3 1 -1 -2 -1 -2 -3 -2 2 -1 -1 -2 -1 -1 0 -2 -1 1 -2
0 -3 -1 -1 -0 3 1 4 -1 -0 -1 -0 -2 -1 -2 3 -1 0 6 3 -4 6 1 -1 -3 -1 -2 3 0 2 1 2 0 0 1 0 -1 1 -3 -3 -1 -0 1 -2 5 6 -1 2 -1
-0 2 2 5 5 1 0 3 -4 -0 -0 0 -0 -1 -3 0 1 0 -3 -4 -0 -5 -2 -0 -3 -6 -2 -2 0 -1 1 2 -1 -0 1 -1 0 -0 -4 -3 -1 0 2 -1 0 -0 0 -1 -1
-2 2 1 -1 -0 1 1 -1 -1 -0 -1 -1 -1 -2 -0 0 1 3 2 3 -1 -3 2 0 -1 3 -4 -3 -4 -1 3 2 3 4 1 -1 -2 1 1 -1 -0 1 1 -2 -2 -2 1 5 1
3 4 3 -3 1 4 -1 -3 1 1 -0 -1 -1 -1 0 -1 2 -1 -1 1 1 -1 -6 -4 -2 -0 -0 -3 0 -3 2 1 0 3 3 1 0 1 1 0 -0 1 1 1 -0 1 -0 -1 1
3 1 8 2 2 -0 -0 -1 -5 0 -2 -2 -1 0 -1 1 0 1 2 -3 3 3 4 1 0 -1 6 4 -1 -0 -3 3 0 -1 0 0 2 1 -1 -3 -1 -2 -1 -0 -1 -1 5 6 1
4 3 -1 -0 2 2 0 -3 -1 -2 -1 -1 -1 -1 -0 -1 -1 -6 11 -0 -2 1 0 1 -2 -1 -0 2 2 -1 -2 -4 0 -1 -1 -1 1 0 2 1 -2 1 0 -1 -2 6 0 5 2
0 0 -1 4 1 1 2 -3 -1 -1 -1 -1 -1 -1 -2 -2 -3 -3 -0 6 5 5 6 -2 1 -4 -0 1 1 0 4 1 -1 -0 1 2 0 -0 2 2 1 -1 0 -1 -2 -1 0 1 -1
Height
1516 1516 1515 1516 1520 1514 1519 1521 1515 1519 1521 1524 1525 1525 1528 1532 1532 1538 1539 1541 1542 1544 1546 1547 1549 1550 1552 1554 1556 1557 1558 1559 1560 1561 1561 1562 1562 1564 1565 1566 1567 1567 1567 1569 1570 1571 1571 1572 1572
1516 1516 1517 1516 1516 1520 1523 1516 1520 1521 1525 1526 1527 1528 1529 1534 1537 1538 1540 1542 1544 1545 1547 1548 1550 1551 1553 1555 1557 1557 1558 1560 1562 1562 1563 1563 1563 1565 1567 1568 1569 1569 1570 1571 1572 1573 1574 1574 1575
1516 1516 1517 1514 1517 1522 1524 1521 1522 1525 1526 1527 1529 1531 1532 1537 1538 1539 1541 1543 1545 1546 1548 1550 1551 1552 1555 1557 1558 1559 1559 1561 1563 1565 1565 1564 1565 1567 1568 1570 1570 1571 1572 1574 1574 1575 1576 1576 1577
1517 1517 1518 1516 1519 1520 1519 1522 1523 1525 1527 1527 1529 1532 1537 1538 1539 1540 1543 1545 1547 1549 1551 1552 1554 1555 1556 1557 1558 1561 1563 1564 1565 1568 1568 1567 1567 1569 1569 1571 1572 1573 1574 1575 1577 1578 1578 1579 1579
1517 1517 1515 1518 1520 1520 1521 1523 1525 1525 1527 1529 1530 1535 1538 1540 1541 1543 1545 1548 1550 1551 1554 1554 1555 1556 1556 1557 1560 1563 1565 1566 1567 1569 1570 1570 1569 1570 1571 1573 1574 1575 1576 1577 1578 1580 1581 1581 1581
1518 1518 1518 1520 1521 1522 1524 1526 1526 1526 1529 1532 1534 1535 1541 1542 1544 1546 1548 1550 1552 1554 1556 1557 1558 1559 1559 1560 1563 1565 1566 1568 1569 1572 1571 1572 1572 1571 1572 1574 1576 1577 1578 1580 1581 1582 1583 1583 1583
1517 1517 1520 1519 1521 1522 1524 1526 1527 1528 1530 1534 1535 1537 1543 1544 1545 1547 1549 1551 1554 1556 1557 1556 1560 1561 1563 1564 1566 1568 1569 1569 1570 1572 1573 1572 1573 1573 1574 1576 1578 1579 1580 1582 1583 1584 1584 1584 1585
1517 1517 1519 1518 1520 1526 1525 1527 1530 1531 1533 1534 1536 1538 1542 1543 1545 1548 1550 1552 1555 1558 1560 1560 1560 1563 1566 1568 1569 1571 1572 1573 1574 1575 1574 1574 1574 1575 1576 1578 1579 1581 1581 1583 1584 1585 1586 1586 1587
1517 1518 1524 1522 1520 1526 1526 1527 1531 1531 1534 1536 1536 1537 1539 1542 1545 1548 1550 1553 1556 1558 1560 1563 1562 1567 1568 1570 1570 1572 1574 1574 1577 1576 1575 1575 1576 1577 1579 1580 1581 1582 1583 1585 1586 1587 1588 1588 1588
1518 1519 1526 1526 1525 1527 1527 1528 1530 1532 1534 1536 1536 1538 1540 1543 1546 1548 1551 1554 1556 1558 1561 1563 1564 1567 1569 1571 1572 1573 1574 1575 1576 1577 1577 1577 1578 1580 1581 1582 1584 1585 1585 1587 1588 1589 1589 1589 1590
1519 1522 1527 1526 1526 1527 1528 1529 1531 1532 1534 1535 1537 1539 1541 1544 1547 1550 1551 1554 1558 1558 1560 1562 1564 1567 1569 1571 1572 1574 1575 1575 1576 1577 1578 1579 1580 1582 1583 1585 1586 1587 1588 1589 1590 1591 1591 1591 1591
1522 1526 1526 1528 1527 1528 1528 1529 1531 1532 1533 1534 1537 1540 1541 1544 1547 1550 1552 1554 1557 1559 1561 1563 1565 1567 1568 1570 1572 1574 1576 1576 1577 1578 1579 1581 1582 1584 1586 1588 1588 1589 1590 1591 1592 1592 1592 1592 1592
1523 1525 1526 1528 1529 1530 1530 1530 1532 1533 1534 1535 1538 1541 1543 1546 1548 1550 1552 1554 1557 1559 1561 1563 1565 1567 1569 1571 1573 1575 1576 1578 1578 1579 1581 1581 1584 1586 1588 1589 1590 1591 1591 1592 1593 1593 1593 1593 1593
1522 1525 1528 1529 1530 1532 1531 1531 1532 1534 1535 1538 1540 1542 1544 1546 1548 1550 1552 1554 1556 1559 1561 1563 1565 1567 1569 1572 1574 1576 1578 1579 1580 1581 1582 1584 1586 1587 1589 1590 1591 1592 1592 1592 1593 1594 1594 1594 1594
1524 1527 1529 1532 1533 1534 1532 1532 1534 1536 1536 1538 1541 1543 1545 1546 1548 1550 1553 1554 1557 1559 1561 1564 1566 1568 1570 1573 1575 1577 1578 1580 1581 1582 1583 1585 1587 1588 1590 1591 1592 1592 1592 1593 1594 1594 1594 1594 1594
1523 1525 1531 1531 1533 1533 1533 1540 1535 1535 1536 1538 1541 1543 1545 1547 1548 1550 1553 1554 1557 1559 1561 1564 1566 1568 1570 1573 1575 1577 1579 1581 1582 1583 1584 1586 1588 1589 1591 1591 1592 1592 1593 1594 1594 1594 1594 1595 1594
1526 1531 1528 1531 1533 1532 1535 1545 1531 1535 1536 1538 1540 1542 1544 1546 1548 1550 1552 1554 1557 1559 1562 1564 1566 1569 1571 1573 1575 1578 1580 1581 1582 1584 1585 1586 1588 1589 1590 1591 1592 1592 1593 1594 1594 1594 1594 1594 1594
1528 1530 1529 1528 1531 1531 1534 1536 1530 1534 1536 1537 1539 1541 1543 1545 1546 1550 1552 1554 1557 1558 1561 1564 1566 1568 1571 1573 1575 1578 1580 1581 1583 1584 1585 1586 1587 1589 1590 1590 1591 1592 1593 1594 1594 1594 1594 1594 1593
1518 1522 1527 1527 1527 1531 1530 1531 1530 1533 1537 1536 1537 1539 1542 1542 1546 1549 1551 1553 1556 1558 1560 1562 1564 1567 1569 1572 1574 1577 1579 1581 1583 1584 1585 1586 1587 1588 1589 1590 1590 1591 1592 1593 1594 1595 1594 1594 1593
1517 1522 1525 1528 1527 1530 1529 1530 1528 1531 1534 1535 1535 1536 1538 1541 1543 1545 1548 1551 1553 1556 1558 1560 1563 1565 1568 1570 1574 1577 1579 1581 1582 1583 1585 1585 1586 1587 1587 1588 1589 1590 1591 1592 1594 1594 1594 1593 1592
1515 1519 1524 1524 1528 1529 1530 1530 1530 1530 1532 1530 1532 1535 1535 1536 1539 1542 1544 1547 1551 1553 1556 1559 1562 1564 1567 1570 1573 1575 1578 1580 1581 1582 1583 1584 1585 1586 1587 1587 1588 1589 1590 1591 1592 1593 1593 1593 1591
1516 1512 1516 1523 1527 1534 1533 1533 1528 1526 1528 1529 1528 1530 1531 1532 1536 1539 1541 1544 1547 1550 1554 1558 1560 1563 1565 1568 1571 1573 1576 1579 1580 1582 1583 1584 1585 1586 1587 1587 1586 1588 1590 1591 1591 1591 1592 1592 1591
1513 1513 1515 1519 1525 1531 1533 1532 1522 1528 1527 1524 1524 1526 1528 1529 1531 1533 1536 1540 1544 1548 1551 1555 1559 1561 1564 1566 1569 1572 1574 1577 1579 1580 1582 1583 1584 1585 1586 1587 1588 1589 1590 1591 1591 1591 1591 1591 1591
1513 1516 1521 1524 1527 1535 1534 1533 1519 1522 1519 1519 1520 1521 1523 1524 1527 1529 1534 1537 1542 1546 1549 1552 1556 1559 1562 1564 1567 1569 1572 1575 1576 1578 1580 1582 1583 1585 1587 1588 1588 1589 1590 1591 1590 1592 1590 1590 1590
1511 1514 1530 1536 1534 1535 1538 1537 1515 1516 1519 1520 1520 1520 1521 1522 1524 1525 1529 1532 1537 1541 1545 1549 1553 1556 1560 1562 1564 1566 1569 1572 1575 1578 1579 1581 1582 1584 1585 1587 1587 1589 1589 1589 1590 1590 1589 1589 1589
1510 1512 1519 1543 1539 1532 1538 1532 1515 1515 1518 1519 1519 1518 1518 1518 1520 1521 1524 1528 1532 1536 1541 1545 1548 1553 1556 1559 1561 1564 1567 1569 1572 1575 1577 1579 1580 1582 1583 1585 1586 1587 1588 1588 1588 1588 1588 1588 1587
1513 1515 1515 1529 1541 1532 1527 1523 1512 1515 1516 1516 1517 1516 1515 1516 1517 1517 1520 1524 1527 1531 1536 1540 1544 1548 1552 1555 1559 1561 1564 1567 1569 1571 1574 1576 1578 1580 1581 1583 1584 1585 1586 1586 1586 1586 1586 1585 1585
1503 1512 1517 1518 1537 1539 1528 1529 1518 1515 1514 1512 1514 1515 1516 1515 1515 1515 1517 1520 1523 1527 1532 1536 1540 1544 1548 1552 1555 1558 1561 1564 1566 1569 1571 1573 1576 1578 1579 1581 1582 1583 1583 1583 1583 1584 1583 1583 1583
1510 1510 1518 1517 1526 1528 1534 1521 1509 1511 1511 1512 1514 1515 1515 1514 1514 1513 1515 1517 1520 1523 1527 1530 1535 1539 1543 1547 1550 1553 1557 1560 1563 1565 1568 1570 1572 1575 1576 1578 1579 1580 1580 1580 1580 1581 1580 1581 1581
1509 1509 1506 1512 1531 1535 1532 1520 1508 1510 1512 1514 1515 1515 1514 1514 1513 1511 1512 1515 1518 1520 1523 1525 1528 1532 1537 1541 1545 1548 1552 1555 1558 1560 1563 1566 1568 1570 1572 1574 1575 1576 1577 1578 1578 1578 1578 1578 1577